Location: Baumgarten
(49.0970°N, 12.7493°E)
Time: 19:08:37
(UTC+00:00)

Cosmos 2219 Rocket - Pass Details

Date: 05 July 2020
Orbit: 827 x 848 km, 71.0° (Epoch: 11 August)

Event Time Altitude Azimuth Distance (km) Brightness Sun altitude
Rises 22:14:30 0° 237° (WSW) 3,360 5.1 -17.0°
Reaches altitude 10° 22:17:09 10° 246° (WSW) 2,432 4.5 -17.1°
Maximum altitude 22:22:12 34° 311° (NW) 1,341 3.7 -17.3°
Drops below altitude 10° 22:27:18 10° 16° (NNE) 2,455 5.6 -17.5°
Sets 22:29:59 0° 26° (NNE) 3,396 6.2 -17.6°
